User: anonymous   Login
Location: Unspecified
(0.0000°N, 0.0000°E)
Time: 03:30:27
(UTC+00:00)
Language:

NOAA 5 - Orbit

View from above orbital plane
View from above orbital plane
View from above satellite
View from above satellite

Ground track
Ground track

The orbit data is extracted from the following two-line orbital elements,

1  9057U 76077A   18015.88214462 -.00000043 +00000-0 +29731-5 0  9993
2  9057 101.8579 356.1803 0009633 252.8051 136.1201 12.37761234874092
Epoch (UTC): 15 January 2018 21:10:17
Eccentricity: 0.0009633
inclination: 101.8579°
perigee height: 1508 km
apogee height: 1524 km
right ascension of ascending node: 356.1803°
argument of perigee: 252.8051°
revolutions per day: 12.37761234
mean anomaly at epoch: 136.1201°
orbit number at epoch: 87409

The dashed part of the orbit path shows where the satellite is in the earth's shadow,  

DLR